Regional Weather Roundup
Issued by NWS

Home | Current Version | Previous Version | Graphics & Text | Print | Product List | Glossary On
Versions: 1 2 3 4 5 6 7 8 9 10 11 12 13 14 15 16 17 18 19 20 21 22 23 24 25 26 27 28 29 30 31 32 33 34 35 36 37 38 39 40 41 42 43 44 45 46 47 48 49 50
718
ASUS43 KOAX 221610
RWRNE

WEATHER ROUNDUP FOR NEBRASKA
NATIONAL WEATHER SERVICE OMAHA NE
1100 AM CDT THU JUN 22 2017

NOTES: SATELLITE DATA IS BEING USED TO AUGMENT CLOUD COVER ABOVE
       12000 FEET.
       "FAIR" INDICATES FEW OR NO CLOUDS BELOW 12,000 FEET WITH NO
       SIGNIFICANT WEATHER AND/OR OBSTRUCTIONS TO VISIBILITY.

  * THESE STATIONS DO NOT REPORT WEATHER SUCH AS RAIN...SNOW OR FOG.

NEZ001>004-019>022-054>056-221700-
NEBRASKA PANHANDLE

CITY           SKY/WX    TMP DP  RH WIND       PRES   REMARKS
SCOTTSBLUFF    SUNNY     77  50  38 N15G22    29.91R
ALLIANCE       SUNNY     69  53  56 N18       29.90R
CHADRON        SUNNY     72  50  45 NE10G17   29.91R
GORDON         CLOUDY    67  54  64 NE15G21   29.90R
KIMBALL        SUNNY     74  51  44 N24G31    29.94R
SIDNEY         SUNNY     76  53  44 N24G35    29.88S
$$

NEZ057>060-069>072-079>082-221700-
SOUTHWEST NEBRASKA

CITY           SKY/WX    TMP DP  RH WIND       PRES   REMARKS
NORTH PLATTE   CLOUDY    87  53  31 NW17G30   29.70R
IMPERIAL       SUNNY     86  50  28 N28G37    29.76R
LEXINGTON      MOSUNNY   84  64  49 NW7       29.66R
MCCOOK         SUNNY     94  51  23 NW17      29.66R HX  91
OGALLALA       SUNNY     82  57  42 N17G25    29.79R
$$

NEZ005>010-023>029-035>040-094-221700-
NORTH CENTRAL NEBRASKA

CITY           SKY/WX    TMP DP  RH WIND       PRES   REMARKS
VALENTINE      CLOUDY    72  54  53 NE18G26   29.82R
AINSWORTH      PTSUNNY   73  57  57 NE17G28   29.78R
BROKEN BOW     SUNNY     84  61  45 N13       29.66R
O`NEILL        CLOUDY    76  62  61 NE23G32   29.72R
ORD            SUNNY     83  59  44 N7        29.64R
THEDFORD       CLOUDY    74  62  65 NE22G28   29.77R
$$

NEZ041-046>049-061>064-073>077-083>087-221700-
SOUTH CENTRAL NEBRASKA

CITY           SKY/WX    TMP DP  RH WIND       PRES   REMARKS
GRAND ISLAND   CLOUDY    82  63  52 S9        29.64R
AURORA         MOSUNNY   84  61  44 SW13      29.63S
HASTINGS       SUNNY     83  62  49 S14G21    29.64F
HEBRON         SUNNY     85  64  49 S14       29.64F
HOLDREGE       SUNNY     80  61  51 S7        29.65F
KEARNEY *      SUNNY     84  61  45 SW10G16   29.65R
YORK             N/A     86  63  45 S10       29.64S
$$

NEZ011>018-030>034-042>045-221700-
NORTHEAST NEBRASKA

CITY           SKY/WX    TMP DP  RH WIND       PRES   REMARKS
NORFOLK        CLOUDY    82  61  48 CALM      29.63R
ALBION         MOSUNNY   82  60  47 SW10      29.63F
BLAIR          MOSUNNY   82  64  54 S16       29.66S
FREMONT        SUNNY     83  64  52 S6        29.65R
TEKAMAH        SUNNY     84  61  45 S5        29.64R
WAYNE          CLOUDY    83  61  48 W5        29.65S
$$

NEZ050>053-065>068-078-088>093-221700-
SOUTHEAST NEBRASKA

CITY           SKY/WX    TMP DP  RH WIND       PRES   REMARKS
LINCOLN        SUNNY     83  66  56 S13       29.64F
OMAHA EPPLEY   MOSUNNY   82  63  52 S21       29.65F
BEATRICE       SUNNY     82  66  59 S16G23    29.66F
FALLS CITY     CLOUDY    79  66  64 S12       29.69F
NEBRASKA CITY  CLOUDY    82  66  59 SW17G25   29.67S
PLATTSMOUTH    CLOUDY    78  63  60 S14       29.68R
$$

NEZ044-045-051>053-067-221700-
OMAHA AREA

CITY           SKY/WX    TMP DP  RH WIND       PRES   REMARKS
OMAHA EPPLEY   MOSUNNY   82  63  52 S21       29.65F
BLAIR          MOSUNNY   82  64  54 S16       29.66S
FREMONT        SUNNY     83  64  52 S6        29.65R
MILLARD        SUNNY     83  66  56 S12       29.65F
OFFUTT AFB     SUNNY     81  64  55 S16       29.66R
PLATTSMOUTH    CLOUDY    78  63  60 S14       29.68R
WAHOO          FAIR      84  62  47 S12       29.64F
$$




USA.gov is the U.S. government's official web portal to all federal, state and local government web resources and services.